Date String (YYYY-MM-DD hh:mm:ss) UTC,Instrument flags,Ambient pressure (hPa),Sample flow (lpm),Bypass flow (lpm),Sample temperature (°C),Ambient temperature (°C),ASC tube jacket temperature (°C),LED temperature (°C),Box temperature (°C),Sample RH (%),Span deviation,Mass concentration (μg/m³),Mass concentration (μg/m³),Mass concentration (μg/m³)
DateTimeUTC,F1_M11,P_M11,Q1_M11,Q2_M11,T1_M11,T2_M11,T3_M11,T4_M11,T5_M11,U1_M11,ZSPAN_M11,X0_M11,X2_M11,X1_M11
2022-10-10 00:00:00,,0830.3,5.01,0.00,29.8,28.9,00.0,38.5,31.8,12.9,-000.0,0011.86,0005.77,0005.02
2022-10-10 00:01:00,,0830.3,5.00,0.00,29.9,28.5,00.0,38.5,31.8,12.8,0000.0,0011.65,0005.81,0005.04
2022-10-10 00:02:00,,0830.2,5.00,0.00,29.8,27.0,00.0,38.5,31.6,12.9,0000.0,0011.69,0005.84,0005.05
2022-10-10 00:03:00,,0830.3,5.00,0.00,29.8,26.7,00.0,38.5,31.5,12.9,0000.2,0011.60,0005.82,0005.06
2022-10-10 00:04:00,,0830.3,5.01,0.00,29.7,26.9,00.0,38.4,31.4,13.1,0000.5,0011.90,0005.81,0005.06
2022-10-10 00:05:00,,0830.2,4.99,0.00,29.7,27.2,00.0,38.4,31.4,13.1,0000.0,0011.56,0005.79,0005.06
2022-10-10 00:06:00,,0830.3,4.99,0.00,29.6,27.5,00.0,38.4,31.4,13.2,0000.0,0011.26,0005.72,0005.06
2022-10-10 00:07:00,,0830.3,5.01,0.00,29.6,27.8,00.0,38.4,31.5,13.2,0000.0,0011.40,0005.71,0005.04
2022-10-10 00:08:00,,0830.3,4.99,0.00,29.7,28.0,00.0,38.4,31.5,13.1,0000.4,0011.52,0005.74,0005.04
2022-10-10 00:09:00,,0830.3,5.01,0.00,29.7,28.2,00.0,38.4,31.6,13.2,0000.0,0011.07,0005.71,0005.04
2022-10-10 00:10:00,,0830.3,5.00,0.00,29.7,28.4,00.0,38.4,31.6,13.2,0000.0,0011.20,0005.72,0005.03
2022-10-10 00:11:00,,0830.3,5.00,0.00,29.7,28.5,00.0,38.4,31.7,13.2,0000.0,0011.23,0005.73,0005.02
2022-10-10 00:12:00,,0830.2,4.99,0.00,29.8,28.6,00.0,38.4,31.7,13.1,0000.4,0011.32,0005.77,0005.03
2022-10-10 00:13:00,,0830.2,5.01,0.00,29.8,28.7,00.0,38.5,31.8,13.1,0000.0,0011.44,0005.78,0005.02
2022-10-10 00:14:00,,0830.3,5.00,0.00,29.8,28.6,00.0,38.5,31.8,13.1,0001.3,0011.39,0005.76,0005.02
2022-10-10 00:15:00,,0830.2,5.01,0.00,29.8,27.2,00.0,38.5,31.5,13.1,0002.9,0011.04,0005.74,0005.03
2022-10-10 00:16:00,,0830.2,5.01,0.00,29.7,26.4,00.0,38.4,31.4,13.1,0002.8,0010.70,0005.70,0005.03
2022-10-10 00:17:00,,0830.2,5.00,0.00,29.7,26.6,00.0,38.4,31.4,13.0,0002.7,0010.52,0005.71,0005.02
2022-10-10 00:18:00,,0830.2,4.99,0.00,29.6,26.9,00.0,38.4,31.3,13.1,0002.8,0010.23,0005.69,0005.02
2022-10-10 00:19:00,,0830.2,5.00,0.00,29.6,27.3,00.0,38.3,31.4,13.1,0002.8,0009.81,0005.65,0005.01
2022-10-10 00:20:00,,0830.3,5.01,0.00,29.6,27.6,00.0,38.3,31.4,13.1,0003.0,0009.92,0005.70,0005.01
2022-10-10 00:21:00,,0830.3,5.01,0.00,29.6,27.8,00.0,38.3,31.4,13.1,0002.9,0009.80,0005.68,0005.01
2022-10-10 00:22:00,,0830.3,5.00,0.00,29.6,28.0,00.0,38.3,31.5,13.0,0003.0,0009.91,0005.65,0005.00
2022-10-10 00:23:00,,0830.3,5.01,0.00,29.6,28.2,00.0,38.3,31.5,12.9,0002.9,0010.64,0005.59,0004.99
2022-10-10 00:24:00,,0830.3,4.99,0.00,29.6,28.3,00.0,38.4,31.6,13.0,0003.0,0010.81,0005.57,0004.99
2022-10-10 00:25:00,,0830.3,4.99,0.00,29.7,28.5,00.0,38.4,31.6,12.9,0002.7,0011.39,0005.58,0004.98
2022-10-10 00:26:00,,0830.3,5.00,0.00,29.7,28.6,00.0,38.4,31.7,12.9,0001.7,0012.32,0005.61,0004.96
2022-10-10 00:27:00,,0830.4,4.99,0.00,29.7,28.6,00.0,38.4,31.7,12.9,0002.0,0012.64,0005.61,0004.95
2022-10-10 00:28:00,,0830.4,5.01,0.00,29.8,28.7,00.0,38.4,31.7,12.8,0002.0,0012.92,0005.56,0004.95
2022-10-10 00:29:00,,0830.5,4.99,0.00,29.8,28.6,00.0,38.4,31.7,12.8,0000.0,0013.11,0005.54,0004.93
2022-10-10 00:30:00,,0830.4,5.01,0.00,29.8,27.2,00.0,38.4,31.6,12.8,0000.0,0013.66,0005.54,0004.92
2022-10-10 00:31:00,,0830.4,5.00,0.00,29.7,26.5,00.0,38.4,31.4,12.8,0000.0,0013.54,0005.51,0004.91
2022-10-10 00:32:00,,0830.5,5.01,0.00,29.6,26.6,00.0,38.3,31.3,12.9,0000.0,0013.50,0005.51,0004.91
2022-10-10 00:33:00,,0830.5,4.99,0.00,29.6,26.9,00.0,38.3,31.3,12.9,0000.0,0013.73,0005.50,0004.91
2022-10-10 00:34:00,,0830.4,4.99,0.00,29.5,27.2,00.0,38.3,31.3,12.9,0000.0,0013.19,0005.49,0004.91
2022-10-10 00:35:00,,0830.4,4.99,0.00,29.5,27.5,00.0,38.3,31.3,12.9,0000.0,0013.50,0005.47,0004.90
2022-10-10 00:36:00,,0830.4,5.01,0.00,29.5,27.8,00.0,38.3,31.4,12.9,0001.1,0013.01,0005.50,0004.89
2022-10-10 00:37:00,,0830.4,5.00,0.00,29.6,28.0,00.0,38.3,31.4,12.9,0001.6,0012.21,0005.53,0004.89
2022-10-10 00:38:00,,0830.4,4.99,0.00,29.6,28.2,00.0,38.3,31.5,12.9,0000.7,0011.60,0005.50,0004.88
2022-10-10 00:39:00,,0830.4,5.01,0.00,29.6,28.3,00.0,38.3,31.5,12.9,0000.0,0011.46,0005.49,0004.86
2022-10-10 00:40:00,,0830.5,4.99,0.00,29.6,28.4,00.0,38.3,31.6,12.9,0000.4,0011.66,0005.48,0004.85
2022-10-10 00:41:00,,0830.5,4.99,0.00,29.7,28.5,00.0,38.3,31.6,12.9,0001.4,0011.40,0005.48,0004.85
2022-10-10 00:42:00,,0830.5,5.02,0.00,29.7,28.6,00.0,38.4,31.7,12.9,0001.2,0011.73,0005.50,0004.85
2022-10-10 00:43:00,,0830.5,5.00,0.00,29.7,28.7,00.0,38.4,31.7,12.9,0001.0,0011.99,0005.53,0004.83
2022-10-10 00:44:00,,0830.5,5.00,0.00,29.8,28.8,00.0,38.4,31.8,12.9,0001.1,0011.81,0005.53,0004.82
2022-10-10 00:45:00,,0830.5,5.02,0.00,29.8,28.8,00.0,38.4,31.7,12.9,0000.4,0011.60,0005.54,0004.80
2022-10-10 00:46:00,,0830.5,5.00,0.00,29.8,28.0,00.0,38.4,31.7,12.9,0000.6,0011.39,0005.54,0004.79
2022-10-10 00:47:00,,0830.5,4.99,0.00,29.7,26.8,00.0,38.4,31.5,12.9,0000.6,0012.11,0005.48,0004.79
2022-10-10 00:48:00,,0830.5,5.01,0.00,29.7,26.6,00.0,38.4,31.4,13.0,0000.0,0012.04,0005.43,0004.79
2022-10-10 00:49:00,,0830.5,5.00,0.00,29.6,26.8,00.0,38.3,31.3,13.1,0000.3,0012.40,0005.42,0004.80
2022-10-10 00:50:00,,0830.5,5.00,0.00,29.6,27.1,00.0,38.3,31.3,13.2,0000.5,0012.21,0005.42,0004.81
2022-10-10 00:51:00,,0830.5,4.99,0.00,29.5,27.4,00.0,38.3,31.3,13.2,0000.3,0011.73,0005.42,0004.82
2022-10-10 00:52:00,,0830.5,4.99,0.00,29.5,27.6,00.0,38.3,31.4,13.3,0000.3,0011.63,0005.37,0004.81
2022-10-10 00:53:00,,0830.5,5.01,0.00,29.5,27.8,00.0,38.3,31.4,13.3,0000.1,0011.23,0005.33,0004.81
2022-10-10 00:54:00,,0830.5,4.99,0.00,29.6,28.0,00.0,38.3,31.4,13.3,0000.2,0011.13,0005.30,0004.82
2022-10-10 00:55:00,,0830.6,5.01,0.00,29.6,28.2,00.0,38.3,31.5,13.3,0000.0,0011.06,0005.27,0004.81
2022-10-10 00:56:00,,0830.5,4.99,0.00,29.6,28.3,00.0,38.3,31.5,13.3,0000.0,0011.09,0005.24,0004.81
2022-10-10 00:57:00,,0830.5,5.02,0.00,29.6,28.4,00.0,38.3,31.6,13.3,0000.0,0011.20,0005.26,0004.82
2022-10-10 00:58:00,,0830.6,4.99,0.00,29.6,28.5,00.0,38.3,31.6,13.3,0000.0,0010.20,0005.25,0004.81
2022-10-10 00:59:00,,0830.5,5.00,0.00,29.7,28.6,00.0,38.3,31.6,13.3,0000.0,0010.13,0005.22,0004.80
